Jamaica, NY

12:31 AM EST on February 21, 2017 (GMT -0500)
Kennedy International

Weather History for KJFK - August, 2012

Change the Weather History Date:

Monday, August 13, 2012

  Actual Average Record
Temperature  
Mean Temperature 79 °F 75 °F  
Max Temperature 87 °F 82 °F 92 °F (2005)
Min Temperature 71 °F 68 °F 56 °F (1979)
Degree Days  
Heating Degree Days 0 0  
Month to date heating degree days 0 0  
Since 1 June heating degree days 18 21  
Since 1 July heating degree days 0 0  
Cooling Degree Days 14 10  
Month to date cooling degree days 184 141  
Year to date cooling degree days 880 696  
Since 1 June cooling degree days 807 661  
Growing Degree Days 29 (Base 50)    
Moisture  
Dew Point 58 °F    
Average Humidity 51    
Maximum Humidity 68    
Minimum Humidity 34    
Precipitation  
Precipitation 0.00 in 0.12 in 2.92 in (2014)
Month to date precipitation 2.60 1.66  
Year to date precipitation 25.65 26.94  
Snow  
Snow 0.00 in 0.00 in - ()
Month to date snowfall 0.0 0.0  
Since 1 July snowfall 0.0 0.0  
Snow Depth 0.00 in    
Sea Level Pressure  
Sea Level Pressure 29.97 in    
Wind  
Wind Speed 10 mph (West)    
Max Wind Speed 18 mph    
Max Gust Speed 26 mph    
Visibility 10 miles    
Events      
T = Trace of Precipitation, MM = Missing Value Source: NWS Daily Summary

Daily Weather History Graph

Daily Weather History Graph

Search for Another Location

Airport or City:

Trip Planner

Search our weather history database for the weather conditions in past years. The results will help you decide how hot, cold, wet, or windy it might be!

Date:

Astronomy

Aug. 13, 2012 Rise Set
Actual Time 6:04 AM EDT 7:55 PM EDT
Civil Twilight 5:34 AM EDT 8:24 PM EDT
Nautical Twilight 4:58 AM EDT 9:00 PM EDT
Astronomical Twilight 4:19 AM EDT 9:38 PM EDT
Moon 2:04 AM EDT (8/13) 5:05 PM EDT (8/13)
Length of Visible Light 14h 49m
Length of Day
13h 50m
Waning Crescent, 16% of the Moon is Illuminated
Aug 13
Waning Crescent
Aug 17
New
Aug 24
First Quarter
Aug 31
Full
Sep 8
Last Quarter

Hourly Weather History & Observations

Time (EDT) Temp. Heat Index Dew Point Humidity Pressure Visibility Wind Dir Wind Speed Gust Speed Precip Events Conditions
12:51 AM 75.9 °F - 61.0 °F 60% 29.96 in 10.0 mi West 6.9 mph - N/A   Partly Cloudy
1:51 AM 75.0 °F - 60.1 °F 60% 29.96 in 10.0 mi West 10.4 mph - N/A   Clear
2:51 AM 73.9 °F - 60.1 °F 62% 29.96 in 10.0 mi West 9.2 mph - N/A   Clear
3:51 AM 73.0 °F - 59.0 °F 61% 29.97 in 10.0 mi West 9.2 mph - N/A   Clear
4:51 AM 72.0 °F - 60.1 °F 66% 29.98 in 10.0 mi West 10.4 mph - N/A   Clear
5:51 AM 71.1 °F - 59.0 °F 66% 29.99 in 10.0 mi WNW 8.1 mph - N/A   Partly Cloudy
6:51 AM 72.0 °F - 60.1 °F 66% 30.00 in 10.0 mi NW 10.4 mph - N/A   Scattered Clouds
7:51 AM 73.9 °F - 60.1 °F 62% 30.01 in 10.0 mi NW 9.2 mph - N/A   Partly Cloudy
8:51 AM 75.9 °F - 60.1 °F 58% 30.01 in 10.0 mi NW 10.4 mph - N/A   Scattered Clouds
9:51 AM 79.0 °F - 61.0 °F 54% 30.01 in 10.0 mi WNW 6.9 mph - N/A   Scattered Clouds
10:51 AM 80.1 °F 80.7 °F 59.0 °F 48% 30.01 in 10.0 mi WNW 11.5 mph - N/A   Scattered Clouds
11:51 AM 81.0 °F 81.6 °F 60.1 °F 49% 29.99 in 10.0 mi Variable 6.9 mph 17.3 mph N/A   Mostly Cloudy
12:00 PM 82.4 °F 82.5 °F 59.0 °F 45% 29.98 in 10.0 mi WNW 10.4 mph - N/A   Mostly Cloudy
12:51 PM 84.0 °F 84.0 °F 60.1 °F 44% 29.97 in 10.0 mi West 10.4 mph 17.3 mph N/A   Mostly Cloudy
1:51 PM 82.9 °F 83.7 °F 62.1 °F 49% 29.95 in 10.0 mi SW 16.1 mph - N/A   Mostly Cloudy
2:51 PM 84.9 °F 84.4 °F 59.0 °F 41% 29.95 in 10.0 mi SSW 16.1 mph 19.6 mph N/A   Mostly Cloudy
3:51 PM 84.0 °F 82.6 °F 54.0 °F 35% 29.95 in 10.0 mi WSW 10.4 mph - N/A   Mostly Cloudy
4:51 PM 82.0 °F 81.7 °F 57.0 °F 42% 29.95 in 10.0 mi SW 15.0 mph - N/A   Mostly Cloudy
5:51 PM 84.0 °F 83.5 °F 57.9 °F 41% 29.94 in 10.0 mi SW 17.3 mph - N/A   Mostly Cloudy
6:51 PM 84.0 °F 82.5 °F 53.1 °F 34% 29.94 in 10.0 mi NW 8.1 mph 19.6 mph N/A   Scattered Clouds
7:51 PM 82.0 °F 81.2 °F 53.1 °F 37% 29.94 in 10.0 mi WNW 10.4 mph - N/A   Scattered Clouds
8:51 PM 81.0 °F 80.8 °F 55.9 °F 42% 29.96 in 10.0 mi West 11.5 mph - N/A   Scattered Clouds
9:51 PM 80.1 °F 80.4 °F 57.0 °F 45% 29.98 in 10.0 mi West 9.2 mph - N/A   Scattered Clouds
10:51 PM 79.0 °F - 57.9 °F 48% 29.98 in 10.0 mi West 8.1 mph - N/A   Partly Cloudy
11:51 PM 77.0 °F - 59.0 °F 54% 29.97 in 10.0 mi West 5.8 mph - N/A   Clear